Location: Unspecified
(0.0000°N, 0.0000°E)
Time: 04:35:18
(UTC+02:00)

Hubble Space Telescope - Visible Passes

Search period start: 03 July 2015 00:00
Search period end: 13 July 2015 00:00
Orbit: 542 x 546 km, 28.5° (Epoch: 01 July)

Date Brightness Start Highest point End Pass type
(mag) Time Alt. Az. Time Alt. Az. Time Alt. Az.
03 Jul 1.7 21:19:13 10° NW 21:23:03 36° NNE 21:24:11 30° ENE visible
04 Jul 1.1 21:10:13 10° NW 21:14:16 53° NNE 21:16:00 31° E visible
05 Jul 3.3 07:26:59 10° S 07:28:28 12° SSE 07:30:03 10° SE visible
05 Jul 0.7 21:01:20 10° WNW 21:05:29 80° NNE 21:07:49 25° ESE visible
06 Jul 3.0 07:17:09 10° SSW 07:19:46 16° SSE 07:22:28 10° ESE visible
06 Jul 0.9 20:52:34 10° WNW 20:56:42 68° SSW 20:59:40 18° SE visible
07 Jul 2.6 07:08:00 11° SSW 07:11:03 23° SSE 07:14:23 10° E visible
07 Jul 1.5 20:43:56 10° WNW 20:47:56 45° SSW 20:51:31 12° SE visible
08 Jul 2.0 06:59:50 18° SSW 07:02:18 32° SSE 07:06:03 10° E visible
08 Jul 2.1 20:35:26 10° W 20:39:09 31° SSW 20:42:52 10° SSE visible
09 Jul 1.4 06:51:42 27° SSW 06:53:31 46° SSE 06:57:32 10° ENE visible
09 Jul 2.6 20:27:07 10° W 20:30:24 22° SSW 20:33:39 10° SSE visible
10 Jul 0.8 06:43:33 44° SW 06:44:44 70° SSE 06:48:53 10° ENE visible
11 Jul 0.6 06:35:23 64° W 06:35:57 78° NNW 06:40:06 10° NE visible
12 Jul 1.1 06:27:12 52° NNW 06:27:12 52° NNW 06:31:12 10° NE visible
